Change the Weather History Date:

Wednesday, October 17, 2012

  Actual Average Record
Temperature  
Mean Temperature 54 °F -  
Max Temperature 62 °F 53 °F 66 °F (1997)
Min Temperature 46 °F 42 °F 37 °F (2002)
Degree Days  
Heating Degree Days 11    
Growing Degree Days 4 (Base 50)    
Moisture  
Dew Point 49 °F    
Average Humidity 78    
Maximum Humidity 95    
Minimum Humidity 46    
Precipitation  
Precipitation 0.02 in - - ()
Sea Level Pressure  
Sea Level Pressure 29.45 in    
Wind  
Wind Speed 10 mph ()    
Max Wind Speed 18 mph    
Max Gust Speed -    
Visibility 7.0 miles    
Events Rain    
Averages and records for this station are not official NWS values.
T = Trace of Precipitation, MM = Missing Value Source: Averaged Metar Reports

Daily Weather History Graph

Daily Weather History Graph

Search for Another Location

Airport or City:

Trip Planner

Search our weather history database for the weather conditions in past years. The results will help you decide how hot, cold, wet, or windy it might be!

Date:

Astronomy

Oct. 17, 2012 Rise Set
Actual Time 7:29 AM BST 6:03 PM BST
Civil Twilight 6:55 AM BST 6:37 PM BST
Nautical Twilight 6:17 AM BST 7:15 PM BST
Astronomical Twilight 5:38 AM BST 7:54 PM BST
Moon 10:07 AM BST (10/17) 7:03 PM BST (10/17)
Length of Visible Light 11h 41m
Length of Day
10h 33m
Waxing Crescent, 6% of the Moon is Illuminated
Oct 17
Waxing Crescent
Oct 22
First Quarter
Oct 29
Full
Nov 7
Last Quarter
Nov 13
New

Hourly Weather History & Observations

Time (BST) Temp. Windchill Dew Point Humidity Pressure Visibility Wind Dir Wind Speed Gust Speed Precip Events Conditions
12:50 AM 47 °F - 44 °F 86% 29.59 in 17 mi ESE 8.1 mph - -   Scattered Clouds
12:50 AM 46.4 °F 42.4 °F 44.6 °F 93% 29.56 in 6.2 mi ESE 8.1 mph - N/A   Mostly Cloudy
1:50 AM 50.0 °F - 44.6 °F 82% 29.53 in 6.2 mi ESE 10.4 mph - N/A   Mostly Cloudy
2:50 AM 51.8 °F - 46.4 °F 82% 29.47 in 6.2 mi ESE 10.4 mph - N/A   Mostly Cloudy
3:50 AM 51.8 °F - 48.2 °F 88% 29.42 in 4.3 mi SE 18.4 mph - N/A   Mostly Cloudy
4:50 AM 50.0 °F - 48.2 °F 94% 29.36 in 3.7 mi SE 17.3 mph - N/A   Mostly Cloudy
5:50 AM 51.8 °F - 50.0 °F 94% 29.33 in 2.5 mi SE 15.0 mph - N/A Rain Heavy Rain
6:50 AM 54 °F - 53 °F 95% 29.35 in 12 mi South 5.8 mph - - Rain Light Rain
6:50 AM 55.4 °F - 53.6 °F 94% 29.33 in 6.2 mi South 5.8 mph - N/A   Mostly Cloudy
7:50 AM 55.4 °F - 51.8 °F 88% 29.39 in 6.2 mi SSW 12.7 mph - N/A   Mostly Cloudy
8:50 AM 55.4 °F - 51.8 °F 88% 29.42 in 6.2 mi SSW 10.4 mph - N/A   Mostly Cloudy
9:50 AM 57.2 °F - 51.8 °F 82% 29.42 in 6.2 mi SSW 12.7 mph - N/A   Mostly Cloudy
10:50 AM 59.0 °F - 50.0 °F 72% 29.44 in 6.2 mi SW 13.8 mph - N/A   Mostly Cloudy
11:50 AM 60.8 °F - 46.4 °F 59% 29.44 in 6.2 mi SSW 18.4 mph - N/A   Mostly Cloudy
12:50 PM 61 °F - 46 °F 47% 29.47 in 25 mi SW 17.3 mph - -   Partly Cloudy
12:50 PM 60.8 °F - 46.4 °F 59% 29.47 in 6.2 mi SW 17.3 mph - N/A   Mostly Cloudy
1:50 PM 62.6 °F - 44.6 °F 52% 29.47 in 6.2 mi SSW 17.3 mph - N/A   Mostly Cloudy
2:50 PM 60.8 °F - 46.4 °F 59% 29.47 in 6.2 mi South 15.0 mph - N/A   Mostly Cloudy
3:50 PM 60 °F - 45 °F 46% 29.48 in 25 mi SSW 15.0 mph - -   Scattered Clouds
3:50 PM 60.8 °F - 44.6 °F 55% 29.47 in 6.2 mi SSW 15.0 mph - N/A   Mostly Cloudy
4:50 PM 59.0 °F - 48.2 °F 67% 29.47 in 6.2 mi South 11.5 mph - N/A   Mostly Cloudy
5:50 PM 57.2 °F - 48.2 °F 72% 29.47 in 6.2 mi South 9.2 mph - N/A   Overcast
6:50 PM 56 °F - 51 °F 80% 29.49 in 7 mi South 4.6 mph - - Rain Light Rain Showers
6:50 PM 55.4 °F - 51.8 °F 88% 29.47 in 6.2 mi South 4.6 mph - N/A Rain Light Rain Showers
7:50 PM 55.4 °F - 51.8 °F 88% 29.47 in 6.2 mi SSE 10.4 mph - N/A   Overcast
8:50 PM 55.4 °F - 51.8 °F 88% 29.47 in 6.2 mi South 10.4 mph - N/A   Mostly Cloudy
9:50 PM 56 °F - 51 °F 78% 29.49 in 19 mi South 10.4 mph - -   Scattered Clouds
9:50 PM 55.4 °F - 51.8 °F 88% 29.47 in 6.2 mi South 10.4 mph - N/A   Mostly Cloudy
10:50 PM 55.4 °F - 50.0 °F 82% 29.47 in 6.2 mi South 11.5 mph - N/A   Mostly Cloudy
11:50 PM 55.4 °F - 50.0 °F 82% 29.47 in 6.2 mi SSE 11.5 mph - N/A   Mostly Cloudy